TimePST,TemperatureF,Dew PointF,Humidity,Sea Level PressureIn,VisibilityMPH,Wind Direction,Wind SpeedMPH,Gust SpeedMPH,PrecipitationIn,Events,Conditions,WindDirDegrees,DateUTC
12:53 AM,28.0,25.0,88,30.18,6.0,Calm,Calm,-,N/A,,Clear,0,2013-01-03 08:53:00
1:53 AM,27.0,24.1,89,30.18,8.0,Calm,Calm,-,N/A,,Clear,0,2013-01-03 09:53:00
2:53 AM,24.1,21.9,91,30.19,7.0,ESE,4.6,-,N/A,,Clear,120,2013-01-03 10:53:00
3:53 AM,24.1,21.0,88,30.18,6.0,Calm,Calm,-,N/A,,Clear,0,2013-01-03 11:53:00
4:12 AM,24.8,21.2,86,30.15,5.0,Calm,Calm,-,N/A,,Scattered Clouds,0,2013-01-03 12:12:00
4:20 AM,24.8,21.2,86,30.14,2.5,Calm,Calm,-,N/A,,Mostly Cloudy,0,2013-01-03 12:20:00
4:23 AM,23.0,21.2,93,30.14,0.8,East,3.5,-,N/A,,Mist,90,2013-01-03 12:23:00
4:30 AM,23.0,21.2,93,30.14,0.8,East,3.5,-,N/A,,Mist,90,2013-01-03 12:30:00
4:33 AM,24.8,21.2,86,30.14,2.5,Calm,Calm,-,N/A,,Mostly Cloudy,0,2013-01-03 12:33:00
4:37 AM,23.0,21.2,93,30.14,6.0,Calm,Calm,-,N/A,,Scattered Clouds,0,2013-01-03 12:37:00
4:53 AM,24.1,21.9,91,30.17,7.0,WSW,3.5,-,N/A,,Clear,240,2013-01-03 12:53:00
5:04 AM,24.8,21.2,86,30.13,2.5,Calm,Calm,-,N/A,,Clear,0,2013-01-03 13:04:00
5:11 AM,24.8,23.0,93,30.13,5.0,SSW,3.5,-,N/A,,Clear,210,2013-01-03 13:11:00
5:53 AM,23.0,19.9,88,30.17,7.0,ESE,3.5,-,N/A,,Clear,110,2013-01-03 13:53:00
6:53 AM,21.9,19.9,92,30.17,6.0,Calm,Calm,-,N/A,,Clear,0,2013-01-03 14:53:00
7:36 AM,21.2,19.4,93,30.15,6.0,Calm,Calm,-,N/A,,Partly Cloudy,0,2013-01-03 15:36:00
7:53 AM,21.0,18.0,88,30.19,6.0,Calm,Calm,-,N/A,,Partly Cloudy,0,2013-01-03 15:53:00
8:01 AM,21.2,17.6,86,30.16,1.5,Variable,3.5,-,N/A,,Scattered Clouds,0,2013-01-03 16:01:00
8:04 AM,21.2,19.4,93,30.16,0.8,Calm,Calm,-,N/A,,Mist,0,2013-01-03 16:04:00
8:09 AM,21.2,19.4,93,30.16,2.0,Calm,Calm,-,N/A,,Mostly Cloudy,0,2013-01-03 16:09:00
8:22 AM,23.0,21.2,93,30.16,5.0,NNE,3.5,-,N/A,,Mostly Cloudy,30,2013-01-03 16:22:00
8:53 AM,25.0,21.9,88,30.21,5.0,Calm,Calm,-,N/A,,Overcast,0,2013-01-03 16:53:00
9:53 AM,28.0,26.1,92,30.23,6.0,Calm,Calm,-,N/A,,Overcast,0,2013-01-03 17:53:00
10:53 AM,33.1,28.0,82,30.22,10.0,Calm,Calm,-,N/A,,Clear,0,2013-01-03 18:53:00
11:53 AM,37.0,30.0,76,30.20,10.0,Calm,Calm,-,N/A,,Overcast,0,2013-01-03 19:53:00
12:53 PM,39.9,30.9,70,30.19,10.0,NNW,3.5,-,N/A,,Mostly Cloudy,340,2013-01-03 20:53:00
1:53 PM,42.1,30.9,65,30.20,10.0,NNW,3.5,-,N/A,,Overcast,330,2013-01-03 21:53:00
2:53 PM,45.0,32.0,60,30.21,10.0,NE,3.5,-,N/A,,Partly Cloudy,40,2013-01-03 22:53:00
3:53 PM,46.0,30.9,56,30.23,10.0,Calm,Calm,-,N/A,,Clear,0,2013-01-03 23:53:00
4:53 PM,43.0,30.9,62,30.25,10.0,SW,3.5,-,N/A,,Clear,220,2013-01-04 00:53:00
5:53 PM,39.9,30.0,68,30.26,10.0,South,4.6,-,N/A,,Clear,170,2013-01-04 01:53:00
6:53 PM,36.0,30.0,79,30.29,10.0,West,4.6,-,N/A,,Clear,270,2013-01-04 02:53:00
7:53 PM,34.0,28.0,79,30.31,10.0,Calm,Calm,-,N/A,,Partly Cloudy,0,2013-01-04 03:53:00
8:53 PM,32.0,27.0,82,30.33,10.0,Calm,Calm,-,N/A,,Partly Cloudy,0,2013-01-04 04:53:00
9:53 PM,30.9,27.0,85,30.35,7.0,Calm,Calm,-,N/A,,Clear,0,2013-01-04 05:53:00
10:53 PM,28.9,27.0,92,30.35,7.0,Calm,Calm,-,N/A,,Clear,0,2013-01-04 06:53:00
11:53 PM,28.4,26.6,93,30.32,7.0,Calm,Calm,-,N/A,,Clear,0,2013-01-04 07:53:00